[keps] orb10210.amsat

Ray Hoad ray.hoad at mypbmail.com
Thu Jul 29 19:30:27 PDT 2010


SB KEPS @ AMSAT  $ORB10210.O
Orbital Elements  10210.OSCAR

HR AMSAT ORBITAL ELEMENTS FOR OSCAR SATELLITES
FROM WA5QGD FORT WORTH,TX July 29, 2010
Send Subscribe/unsubscribe to KEPS at http://www.amsat.org/mailman/listinfo/keps
BID: ORB10210.O
TO ALL RADIO AMATEURS BT

Satellite: AO-07
Catalog number: 07530
Epoch time:      10209.62210797
Element set:    0840
Inclination:      101.4003 deg
RA of node:       223.8802 deg
Eccentricity:    0.0011700
Arg of perigee:   191.9888 deg
Mean anomaly:     168.0908 deg
Mean motion:   12.53578955 rev/day
Decay rate:       -2.7e-07 rev/day^2
Epoch rev:           63364
Checksum:              292

Satellite: FO-29
Catalog number: 24278
Epoch time:      10210.84875989
Element set:     364
Inclination:      098.5143 deg
RA of node:       034.0791 deg
Eccentricity:    0.0351102
Arg of perigee:   013.3400 deg
Mean anomaly:     347.6736 deg
Mean motion:   13.52951862 rev/day
Decay rate:       -3.2e-07 rev/day^2
Epoch rev:           68887
Checksum:              318

Satellite: SO-33
Catalog number: 25509
Epoch time:      10209.49588489
Element set:    0762
Inclination:      031.4354 deg
RA of node:       274.9197 deg
Eccentricity:    0.0354248
Arg of perigee:   291.0443 deg
Mean anomaly:     065.2642 deg
Mean motion:   14.28317140 rev/day
Decay rate:        7.4e-07 rev/day^2
Epoch rev:           61396
Checksum:              320

Satellite: RS-22
Catalog number: 27939
Epoch time:      10210.65218928
Element set:     404
Inclination:      097.8865 deg
RA of node:       074.3252 deg
Eccentricity:    0.0012514
Arg of perigee:   288.1174 deg
Mean anomaly:     071.8656 deg
Mean motion:   14.63436995 rev/day
Decay rate:        4.5e-07 rev/day^2
Epoch rev:           36516
Checksum:              321

Satellite: VO-52
Catalog number: 28650
Epoch time:      10209.66327654
Element set:    0564
Inclination:      097.6897 deg
RA of node:       261.4747 deg
Eccentricity:    0.0027749
Arg of perigee:   138.8476 deg
Mean anomaly:     221.4828 deg
Mean motion:   14.81779486 rev/day
Decay rate:       4.41e-06 rev/day^2
Epoch rev:           28283
Checksum:              361

Satellite: SO-67
Catalog number: 35870
Epoch time:      10210.88368295
Element set:     957
Inclination:      097.3287 deg
RA of node:       258.8837 deg
Eccentricity:    0.0002314
Arg of perigee:   342.4137 deg
Mean anomaly:     130.6659 deg
Mean motion:   15.20971675 rev/day
Decay rate:       5.89e-06 rev/day^2
Epoch rev:            4794
Checksum:              350

Satellite: HO-68
Catalog number: 36122
Epoch time:      10210.66067306
Element set:     531
Inclination:      100.4671 deg
RA of node:       270.6557 deg
Eccentricity:    0.0007139
Arg of perigee:   239.2684 deg
Mean anomaly:     120.7732 deg
Mean motion:   13.16281303 rev/day
Decay rate:       -4.5e-07 rev/day^2
Epoch rev:            2980
Checksum:              270

/EX
SB KEPS @ AMSAT  $ORB10210.D
Orbital Elements  10210.MICROS

HR AMSAT ORBITAL ELEMENTS FOR THE MICROSATS
FROM WA5QGD FORT WORTH,TX July 29, 2010
Send Subscribe/unsubscribe to KEPS at http://www.amsat.org/mailman/listinfo/keps
BID: ORB10210.D
TO ALL RADIO AMATEURS BT

Satellite: UO-11
Catalog number: 14781
Epoch time:      10209.67444704
Element set:    0300
Inclination:      098.0527 deg
RA of node:       261.5361 deg
Eccentricity:    0.0010211
Arg of perigee:   103.6563 deg
Mean anomaly:     256.5761 deg
Mean motion:   14.79819934 rev/day
Decay rate:       1.94e-06 rev/day^2
Epoch rev:           41794
Checksum:              294

Satellite: AO-16
Catalog number: 20439
Epoch time:      10209.41766535
Element set:    0957
Inclination:      098.3340 deg
RA of node:       165.7066 deg
Eccentricity:    0.0011795
Arg of perigee:   047.3332 deg
Mean anomaly:     312.8839 deg
Mean motion:   14.31868247 rev/day
Decay rate:        1.8e-07 rev/day^2
Epoch rev:           07128
Checksum:              314

Satellite: LO-19
Catalog number: 20442
Epoch time:      10209.47863785
Element set:    0866
Inclination:      098.2954 deg
RA of node:       171.4012 deg
Eccentricity:    0.0012651
Arg of perigee:   042.2184 deg
Mean anomaly:     317.9951 deg
Mean motion:   14.32098608 rev/day
Decay rate:       -4.0e-08 rev/day^2
Epoch rev:           07146
Checksum:              302

Satellite: AO-27
Catalog number: 22825
Epoch time:      10210.78576810
Element set:     589
Inclination:      098.4872 deg
RA of node:       157.6391 deg
Eccentricity:    0.0009151
Arg of perigee:   139.3693 deg
Mean anomaly:     220.8175 deg
Mean motion:   14.29303094 rev/day
Decay rate:        2.1e-07 rev/day^2
Epoch rev:           87813
Checksum:              317

Satellite: IO-26
Catalog number: 22826
Epoch time:      10209.79372510
Element set:     325
Inclination:      098.4816 deg
RA of node:       157.2584 deg
Eccentricity:    0.0009473
Arg of perigee:   137.0230 deg
Mean anomaly:     223.1699 deg
Mean motion:   14.29559489 rev/day
Decay rate:       -9.0e-08 rev/day^2
Epoch rev:           87810
Checksum:              325

Satellite: GO-32
Catalog number: 25397
Epoch time:      10209.58107129
Element set:     245
Inclination:      098.3125 deg
RA of node:       214.7530 deg
Eccentricity:    0.0002109
Arg of perigee:   121.4977 deg
Mean anomaly:     238.6402 deg
Mean motion:   14.23181548 rev/day
Decay rate:       -4.4e-07 rev/day^2
Epoch rev:           62593
Checksum:              287

Satellite: NO-44
Catalog number: 26931
Epoch time:      10211.01982251
Element set:     520
Inclination:      067.0525 deg
RA of node:       093.6218 deg
Eccentricity:    0.0005133
Arg of perigee:   266.6714 deg
Mean anomaly:     093.3771 deg
Mean motion:   14.29605674 rev/day
Decay rate:       1.09e-06 rev/day^2
Epoch rev:           46087
Checksum:              286

Satellite: SO-50
Catalog number: 27607
Epoch time:      10210.48285366
Element set:     231
Inclination:      064.5561 deg
RA of node:       228.0485 deg
Eccentricity:    0.0036774
Arg of perigee:   057.2977 deg
Mean anomaly:     303.1669 deg
Mean motion:   14.71557492 rev/day
Decay rate:       -2.0e-08 rev/day^2
Epoch rev:           40860
Checksum:              305

Satellite: CO-55
Catalog number: 27844
Epoch time:      10210.56244351
Element set:     900
Inclination:      098.7099 deg
RA of node:       218.9287 deg
Eccentricity:    0.0010920
Arg of perigee:   050.8269 deg
Mean anomaly:     309.3892 deg
Mean motion:   14.20720089 rev/day
Decay rate:        5.5e-07 rev/day^2
Epoch rev:           36710
Checksum:              304

Satellite: CO-57
Catalog number: 27848
Epoch time:      10209.54167995
Element set:    0850
Inclination:      098.7144 deg
RA of node:       217.0242 deg
Eccentricity:    0.0010833
Arg of perigee:   057.8585 deg
Mean anomaly:     302.3652 deg
Mean motion:   14.20511793 rev/day
Decay rate:        5.0e-07 rev/day^2
Epoch rev:           36691
Checksum:              311

Satellite: AO-51
Catalog number: 28375
Epoch time:      10209.68085420
Element set:    0736
Inclination:      098.0642 deg
RA of node:       200.8179 deg
Eccentricity:    0.0084352
Arg of perigee:   332.2439 deg
Mean anomaly:     027.4256 deg
Mean motion:   14.40692023 rev/day
Decay rate:        6.0e-08 rev/day^2
Epoch rev:           31948
Checksum:              296

Satellite: GENESAT1
Catalog number: 29655
Epoch time:      10210.83748197
Element set:     207
Inclination:      040.0099 deg
RA of node:       106.7615 deg
Eccentricity:    0.0013119
Arg of perigee:   272.9540 deg
Mean anomaly:     086.9762 deg
Mean motion:   16.16306164 rev/day
Decay rate:    8.46978e-03 rev/day^2
Epoch rev:           20683
Checksum:              319

Satellite: CP3
Catalog number: 31129
Epoch time:      10208.72822494
Element set:    0639
Inclination:      097.9366 deg
RA of node:       246.1249 deg
Eccentricity:    0.0103827
Arg of perigee:   107.9025 deg
Mean anomaly:     253.3558 deg
Mean motion:   14.52280958 rev/day
Decay rate:      -1.78e-06 rev/day^2
Epoch rev:           17374
Checksum:              322

Satellite: CO-65
Catalog number: 32785
Epoch time:      10209.22431302
Element set:    0744
Inclination:      097.8936 deg
RA of node:       273.5792 deg
Eccentricity:    0.0015401
Arg of perigee:   147.0881 deg
Mean anomaly:     213.1278 deg
Mean motion:   14.81686165 rev/day
Decay rate:       4.54e-06 rev/day^2
Epoch rev:           12156
Checksum:              305

Satellite: KKS-1
Catalog number: 33493
Epoch time:      10210.95327096
Element set:     706
Inclination:      098.0899 deg
RA of node:       330.8199 deg
Eccentricity:    0.0020283
Arg of perigee:   006.8499 deg
Mean anomaly:     353.2970 deg
Mean motion:   14.81044718 rev/day
Decay rate:       3.88e-06 rev/day^2
Epoch rev:            8181
Checksum:              322

Satellite: SOHLA-1
Catalog number: 33496
Epoch time:      10209.69652775
Element set:    0167
Inclination:      098.0622 deg
RA of node:       318.2394 deg
Eccentricity:    0.0007755
Arg of perigee:   073.9675 deg
Mean anomaly:     286.2394 deg
Mean motion:   14.69505687 rev/day
Decay rate:       1.70e-06 rev/day^2
Epoch rev:           08097
Checksum:              344

Satellite: TISAT-1
Catalog number: 36799
Epoch time:      10209.69704101
Element set:      37
Inclination:      098.1457 deg
RA of node:       269.0818 deg
Eccentricity:    0.0014431
Arg of perigee:   240.1269 deg
Mean anomaly:     119.8467 deg
Mean motion:   14.80127943 rev/day
Decay rate:       2.88e-06 rev/day^2
Epoch rev:             245
Checksum:              304

